TimeCET,TemperatureF,Dew PointF,Humidity,Sea Level PressureIn,VisibilityMPH,Wind Direction,Wind SpeedMPH,Gust SpeedMPH,PrecipitationIn,Events,Conditions,WindDirDegrees,DateUTC
12:09 AM,37.4,37.4,100,30.36,0.4,SE,2.2,-,N/A,Fog,Fog,140,2013-11-15 23:09:00
12:15 AM,39.2,39.2,100,30.36,0.4,SE,2.2,-,N/A,Fog,Fog,140,2013-11-15 23:15:00
12:45 AM,35.6,35.6,100,30.36,0.4,SSE,2.2,-,N/A,Fog,Fog,150,2013-11-15 23:45:00
1:15 AM,35.6,35.6,100,30.36,0.4,SSE,2.2,-,N/A,Fog,Fog,150,2013-11-16 00:15:00
1:45 AM,33.8,33.8,100,30.36,0.4,ENE,2.2,-,N/A,Fog,Fog,60,2013-11-16 00:45:00
2:15 AM,33.8,33.8,100,30.36,0.4,Calm,Calm,-,N/A,Fog,Fog,0,2013-11-16 01:15:00
2:45 AM,33.8,33.8,100,30.36,0.4,ESE,2.2,-,N/A,Fog,Fog,120,2013-11-16 01:45:00
3:02 AM,32.0,32.0,100,30.36,0.5,SE,2.2,-,N/A,Fog,Fog,130,2013-11-16 02:02:00
3:15 AM,32.0,32.0,100,30.36,0.5,SE,4.5,-,N/A,Fog,Fog,140,2013-11-16 02:15:00
3:45 AM,33.8,33.8,100,30.36,0.5,SE,2.2,-,N/A,Fog,Fog,140,2013-11-16 02:45:00
4:15 AM,33.8,33.8,100,30.36,0.5,South,2.2,-,N/A,Fog,Fog,170,2013-11-16 03:15:00
4:45 AM,33.8,33.8,100,30.36,0.5,SSW,2.2,-,N/A,Fog,Fog,200,2013-11-16 03:45:00
5:15 AM,32.0,32.0,100,30.36,0.5,Calm,Calm,-,N/A,Fog,Fog,0,2013-11-16 04:15:00
5:45 AM,33.8,33.8,100,30.36,0.5,East,2.2,-,N/A,Fog,Fog,80,2013-11-16 04:45:00
6:15 AM,32.0,32.0,100,30.36,0.5,Calm,Calm,-,N/A,Fog,Fog,0,2013-11-16 05:15:00
6:45 AM,30.2,30.2,100,30.39,0.5,Calm,Calm,-,N/A,Fog,Fog,0,2013-11-16 05:45:00
7:15 AM,32.0,32.0,100,30.39,0.5,Calm,Calm,-,N/A,Fog,Fog,0,2013-11-16 06:15:00
7:36 AM,32.0,32.0,100,30.39,0.3,Calm,Calm,-,N/A,Fog,Fog,0,2013-11-16 06:36:00
7:45 AM,32.0,32.0,100,30.39,0.3,Calm,Calm,-,N/A,Fog,Fog,0,2013-11-16 06:45:00
8:15 AM,33.8,33.8,100,30.42,0.2,Calm,Calm,-,N/A,Fog,Fog,0,2013-11-16 07:15:00
8:42 AM,35.6,35.6,100,30.42,0.2,Calm,Calm,-,N/A,Fog,Fog,0,2013-11-16 07:42:00
8:45 AM,35.6,35.6,100,30.42,0.2,Calm,Calm,-,N/A,Fog,Fog,0,2013-11-16 07:45:00
9:15 AM,37.4,37.4,100,30.42,0.2,Calm,Calm,-,N/A,Fog,Fog,0,2013-11-16 08:15:00
9:45 AM,39.2,39.2,100,30.42,0.3,Calm,Calm,-,N/A,Fog,Fog,0,2013-11-16 08:45:00
10:07 AM,41.0,41.0,100,30.42,0.6,Calm,Calm,-,N/A,,Scattered Clouds,0,2013-11-16 09:07:00
10:15 AM,42.8,42.8,100,30.42,0.6,Calm,Calm,-,N/A,,Mostly Cloudy,0,2013-11-16 09:15:00
10:45 AM,44.6,42.8,93,30.42,0.6,NNW,2.2,-,N/A,,Mostly Cloudy,340,2013-11-16 09:45:00
11:09 AM,46.4,42.8,87,30.42,0.9,NNW,4.5,-,N/A,,Scattered Clouds,340,2013-11-16 10:09:00
11:15 AM,46.4,42.8,87,30.42,0.9,NNW,4.5,-,N/A,,Scattered Clouds,340,2013-11-16 10:15:00
11:45 AM,46.4,42.8,87,30.39,0.6,NW,4.5,-,N/A,,Scattered Clouds,320,2013-11-16 10:45:00
11:49 AM,44.6,42.8,93,30.39,0.6,NW,4.5,-,N/A,,Mostly Cloudy,320,2013-11-16 10:49:00
12:15 PM,44.6,42.8,93,30.39,0.6,NNW,4.5,-,N/A,,Mostly Cloudy,340,2013-11-16 11:15:00
12:45 PM,42.8,42.8,100,30.39,0.6,WNW,4.5,-,N/A,,Mostly Cloudy,300,2013-11-16 11:45:00
1:15 PM,44.6,42.8,93,30.39,0.6,NW,4.5,-,N/A,,Mostly Cloudy,320,2013-11-16 12:15:00
1:42 PM,44.6,44.6,100,30.36,0.3,NNW,4.5,-,N/A,Fog,Fog,330,2013-11-16 12:42:00
1:45 PM,44.6,42.8,93,30.36,0.3,NW,4.5,-,N/A,Fog,Fog,320,2013-11-16 12:45:00
2:12 PM,42.8,42.8,100,30.36,0.2,NNW,4.5,-,N/A,Fog,Fog,340,2013-11-16 13:12:00
2:15 PM,42.8,42.8,100,30.36,0.2,NNW,4.5,-,N/A,Fog,Fog,330,2013-11-16 13:15:00
2:45 PM,42.8,42.8,100,30.36,0.1,WNW,4.5,-,N/A,Fog,Fog,300,2013-11-16 13:45:00
3:15 PM,42.8,42.8,100,30.36,0.1,NNW,2.2,-,N/A,Fog,Fog,330,2013-11-16 14:15:00
3:45 PM,42.8,42.8,100,30.36,0.1,WNW,2.2,-,N/A,Fog,Fog,290,2013-11-16 14:45:00
4:15 PM,42.8,42.8,100,30.36,0.1,Calm,Calm,-,N/A,Fog,Fog,0,2013-11-16 15:15:00
4:45 PM,41.0,41.0,100,30.36,0.1,NNW,2.2,-,N/A,Fog,Fog,340,2013-11-16 15:45:00
5:15 PM,41.0,41.0,100,30.36,0.1,Calm,Calm,-,N/A,Fog,Fog,0,2013-11-16 16:15:00
5:45 PM,41.0,41.0,100,30.36,0.1,Calm,Calm,-,N/A,Fog,Fog,0,2013-11-16 16:45:00
6:15 PM,41.0,41.0,100,30.36,0.1,Calm,Calm,-,N/A,Fog,Fog,0,2013-11-16 17:15:00
6:45 PM,41.0,41.0,100,30.36,0.1,Calm,Calm,-,N/A,Fog,Fog,0,2013-11-16 17:45:00
7:15 PM,41.0,41.0,100,30.36,0.1,Calm,Calm,-,N/A,Fog,Fog,0,2013-11-16 18:15:00
7:45 PM,39.2,39.2,100,30.36,0.1,Calm,Calm,-,N/A,Fog,Fog,0,2013-11-16 18:45:00
8:15 PM,39.2,39.2,100,30.36,0.1,Calm,Calm,-,N/A,Fog,Fog,0,2013-11-16 19:15:00
8:45 PM,39.2,39.2,100,30.36,0.1,Calm,Calm,-,N/A,Fog,Fog,0,2013-11-16 19:45:00
9:15 PM,39.2,39.2,100,30.36,0.1,Calm,Calm,-,N/A,Fog,Fog,0,2013-11-16 20:15:00
9:45 PM,39.2,39.2,100,30.36,0.1,Calm,Calm,-,N/A,Fog,Fog,0,2013-11-16 20:45:00
10:15 PM,39.2,39.2,100,30.36,0.1,Calm,Calm,-,N/A,Fog,Fog,0,2013-11-16 21:15:00
10:45 PM,39.2,39.2,100,30.36,0.1,Calm,Calm,-,N/A,Fog,Fog,0,2013-11-16 21:45:00
11:15 PM,37.4,37.4,100,30.36,0.1,Calm,Calm,-,N/A,Fog,Fog,0,2013-11-16 22:15:00
11:45 PM,37.4,37.4,100,30.36,0.1,Calm,Calm,-,N/A,Fog,Fog,0,2013-11-16 22:45:00